Location: *
(49.5575°S, 175.6862°W)
Time: 04:26:53
(UTC+00:00)

Daily predictions for brighter satellites

Satellite Brightness Start Highest point End
(mag) Time Altitude Azimuth Time Altitude Azimuth Time Altitude Azimuth
Cosmos 1937 Rocket 3.6 04:23:18 10° N 04:28:23 64° ENE 04:33:34 10° SSE
SL-08 RB Rocket 4.3 04:29:48 10° SSE 04:34:14 39° E 04:38:36 10° NNE
Cosmos 1818 3.8 04:35:24 10° SSW 04:40:39 50° SE 04:45:54 10° ENE
GEOS 3 Rocket 4.4 04:36:23 10° E 04:40:51 31° SSE 04:45:23 10° SSW
Cosmos 1833 Rocket 4.5 04:38:17 10° S 04:41:03 13° SSE 04:43:48 10° ESE
Cosmos 1437 Rocket 2.7 04:37:44 10° NNW 04:41:26 86° WSW 04:45:12 10° SSE
Iridium 4 Rocket 4.1 04:36:20 10° S 04:42:17 78° W 04:48:09 10° N
Helios 1A 3.5 04:38:56 10° NE 04:42:44 36° ESE 04:46:36 10° S
Meteor 2-19 Rocket 4.4 04:39:07 10° S 04:45:22 76° E 04:51:29 10° NNE
Cosmos 1238 Rocket 3.1 04:42:50 10° S 04:46:37 49° ESE 04:51:00 10° NNE
ARIANE 5 R/B 2.8 04:41:54 10° SSE 04:47:04 54° E 04:52:13 10° N
SL-16 R/B 3.7 04:43:32 10° SW 04:48:52 42° WNW 04:54:10 10° N
Cosmos 494 Rocket 4.1 04:44:39 10° SSW 04:49:50 53° ESE 04:54:54 10° NE
Cosmos 1934 Rocket 4.1 04:44:43 10° N 04:50:58 86° W 04:57:12 10° S
Cosmos 1782 3.8 04:48:20 10° SSE 04:51:34 24° ESE 04:54:46 10° NE
Cosmos 1603 3.8 04:46:33 10° SSW 04:52:07 53° SE 04:57:38 10° NE
NOSS 3-3 (C) 3.9 04:51:06 10° SW 04:57:50 71° SE 05:03:25 10° NE
Cosmos 1933 4.4 04:55:07 10° SSE 04:58:24 23° ESE 05:01:38 10° ENE
Cosmos 2263 Rocket 2.3 04:53:17 10° NNW 04:58:57 81° WSW 05:04:45 10° SSE
COSMO-SKYMED 1 2.9 04:55:52 10° N 05:00:14 75° WNW 05:04:42 10° SSW
H-2A R/B 3.0 04:56:36 10° S 05:01:22 46° WSW 05:06:05 10° NW
Cosmos 1626 Rocket 4.2 04:59:16 10° NNE 05:03:13 35° E 05:07:12 10° SSE
Cosmos 2082 3.9 04:58:20 10° NNW 05:04:03 78° WSW 05:09:53 10° SSE
SL-4 R/B 1.4 05:00:48 10° WSW 05:04:15 80° SSE 05:07:09 14° ENE
BREEZE-M DEB (TANK) 3.1 05:03:13 10° WNW 05:05:24 34° N 05:08:54 10° ENE
FengYun 1-2 T 4.3 05:00:48 10° SSE 05:06:35 85° ENE 05:12:16 10° NNW
ERS-1 4.4 05:01:51 10° SSE 05:06:55 69° ENE 05:11:53 10° N
SMAP 4.3 05:06:57 13° SE 05:09:59 22° E 05:13:39 10° NE
CZ-2D R/B 3.5 05:07:37 10° SSE 05:11:35 54° E 05:15:34 10° N
Cosmos 921 Rocket 2.9 05:07:34 10° SSW 05:11:57 75° ESE 05:16:21 10° NNE
Cosmos 2219 4.1 05:10:26 10° NW 05:15:57 47° SW 05:21:34 10° SSE
Cosmos 1048 Rocket 4.0 05:12:31 10° SSW 05:17:56 67° ESE 05:23:13 10° NNE
Cosmos 2227 Rocket 3.8 05:13:31 10° WNW 05:18:29 30° SW 05:23:29 10° SSE
Cosmos 2227 4.3 05:14:29 10° NNW 05:20:05 61° ENE 05:25:13 13° SE
Cosmos 1943 3.6 05:16:30 10° SSW 05:22:14 68° WNW 05:27:55 10° NNE
SKYMED 3 4.5 05:18:28 10° NNE 05:22:29 55° ESE 05:26:32 10° S
Cosmos 1125 Rocket 4.4 05:18:17 10° NNE 05:22:47 29° E 05:25:20 20° ESE
Cosmos 1844 Rocket 3.2 05:21:00 10° N 05:26:14 41° ENE 05:29:58 18° SE
Cosmos 2058 Rocket 3.8 05:23:08 10° SSW 05:27:29 56° W 05:31:47 10° N
Cosmos 2346 Rocket 4.4 05:23:45 10° S 05:30:06 79° E 05:36:24 10° NNE
SJ-11-01 4.3 05:27:13 10° SSE 05:32:01 87° ENE 05:36:46 10° NNW
USA 267 3.4 05:28:51 18° E 05:33:49 59° SSE 05:40:19 10° WSW
CZ-4C R/B 3.7 05:26:30 10° W 05:34:03 41° SSW 05:39:25 14° SE
Cosmos 1459 Rocket 4.2 05:29:01 10° NNE 05:35:01 47° E 05:41:00 10° SSE
Cosmos 1812 4.3 05:31:50 10° SSW 05:35:13 35° W 05:38:33 10° NNW
NOSS 3-2 (C) 4.2 05:26:57 10° NNW 05:35:45 64° NE 05:41:38 19° SE
SJ-6F 4.3 05:31:49 10° SSE 05:35:59 78° ENE 05:40:04 10° N
Cosmos 2084 Rocket 3.7 05:34:24 10° NW 05:38:38 65° SW 05:41:22 23° SE
Cosmos 1605 Rocket 4.5 05:33:29 10° NNW 05:39:38 64° WSW 05:45:58 10° S
NOSS 3-2 (A) 4.2 05:32:39 10° NW 05:41:34 80° SW 05:47:47 17° SE
Cosmos 2297 Rocket 4.4 05:38:35 10° WSW 05:42:05 16° SSW 05:45:36 10° S
Cosmos 1844 3.9 05:38:15 10° N 05:43:38 47° ENE 05:46:33 25° SE
Okean 1-7 Rocket 3.6 05:39:31 10° N 05:43:50 56° E 05:47:18 16° SSE
Cosmos 1862 3.8 05:40:24 10° NNE 05:43:56 35° E 05:43:56 35° E
Cosmos 1515 3.4 05:40:30 10° S 05:44:06 66° ESE 05:47:38 10° NNE
ARGOS 4.2 05:39:14 10° S 05:44:28 47° WSW 05:49:38 10° NW
CZ-2D R/B 3.1 05:41:49 13° SSE 05:45:05 89° WSW 05:48:47 10° NNW
PSLV R/B 3.4 05:41:54 13° SSE 05:45:43 68° ENE 05:49:56 10° N
Cosmos 1802 Rocket 4.2 05:42:11 10° NNE 05:48:04 45° E 05:53:58 10° SSE
Cosmos 1812 Rocket 3.5 05:43:34 10° S 05:48:07 71° ESE 05:52:37 10° NNE
CENTAUR R/B 3.3 05:42:33 10° WNW 05:50:26 58° SW 05:55:21 19° SE
Cosmos-2242 3.2 05:46:41 10° SSW 05:50:59 73° W 05:55:12 10° N
Cosmos 2016 Rocket 4.3 05:45:40 10° NNE 05:51:32 41° E 05:57:24 10° SSE
USA 184 4.3 05:29:12 10° N 05:52:44 37° NE 05:56:45 26° E
Cosmos 1461 3.3 05:49:04 10° N 05:52:57 40° ENE 05:53:19 39° ENE
Meteor 2-3 Rocket 3.6 05:48:07 10° N 05:53:48 72° E 05:59:29 10° SSE
SL-08 R/B 4.1 05:49:43 10° N 05:54:20 53° W 05:58:58 10° SSW
Cosmos 1607 3.9 05:49:12 10° SW 05:55:21 66° SE 05:59:41 20° NE
ATLAS CENTAUR R/B 3.8 05:54:24 10° SSW 05:55:23 11° S 05:56:22 10° S
AQUARIUS 4.5 05:55:54 40° ESE 05:56:30 42° E 06:00:47 10° N
Spot 4 Rocket 4.0 05:52:16 10° SSE 05:57:32 86° ENE 06:02:44 10° NNW
BlueWalker 3 1.8 05:55:59 10° WNW 05:59:53 90° S 06:00:34 59° ESE
Cosmos 1602 Rocket 3.4 05:56:17 10° N 06:00:40 78° E 06:03:36 21° SSE
Tsikada Rocket 4.2 05:55:15 10° S 06:01:12 43° ESE 06:07:03 10° NE
Cosmos 1378 4.1 05:58:36 10° S 06:06:43 - NNE 06:00:25 29° S
Cosmos 1544 3.7 06:00:37 10° NNW 06:03:16 39° WSW 06:04:09 29° SSW
Cosmos 1825 Rocket 4.4 06:02:55 10° NNE 06:05:41 33° NE 06:05:41 33° NE
CORIOLIS 4.1 06:04:07 16° SSE 06:08:32 67° ENE 06:13:58 10° N
Cosmos 1758 Rocket 3.6 06:05:02 10° NNW 06:09:22 77° W 06:12:46 17° S
GEOS 3 Rocket 3.6 06:15:26 25° NE 06:18:29 84° NW 06:23:43 10° SW
Cosmos 2233 Rocket 4.2 06:13:52 10° NNE 06:19:46 45° E 06:19:46 45° E
Cosmos 2061 Rocket 4.1 06:14:35 10° NNE 06:20:34 50° E 06:22:23 39° SE
Meteor 2-16 Rocket 4.4 06:15:42 10° S 06:21:57 89° E 06:28:05 10° N
Cosmos 2221 3.5 06:19:48 10° S 06:22:20 34° S 06:22:20 34° S
Cosmos 2150 Rocket 4.2 06:19:42 10° N 06:24:49 54° ENE 06:24:49 54° ENE
ARIANE 5 R/B 4.5 06:21:29 10° S 06:25:50 27° WSW 06:30:10 10° WNW
Cosmos 1833 Rocket 3.2 06:21:08 10° SSW 06:25:50 41° SSE 06:25:50 41° SSE
Cosmos 614 Rocket 3.9 06:24:29 10° SSW 06:29:15 62° SE 06:29:15 62° SE
Cosmos 1271 Rocket 4.1 06:32:40 10° NNW 06:34:42 30° NNW 06:34:42 30° NNW
Cosmos 2082 Rocket 4.0 06:33:04 10° S 06:35:19 18° S 06:35:19 18° S
USA 238 DEB 3.8 06:29:57 10° NNW 06:37:54 80° NE 06:40:26 46° SE
USA 238 3.8 06:30:03 10° NNW 06:37:58 79° NE 06:40:28 47° SE
USA 215 3.2 06:39:48 55° E 06:41:03 66° NE 06:47:35 10° NW
Cosmos 724 4.3 06:35:02 10° SW 06:41:19 88° NW 06:43:05 50° NNE
Meteor 2-8 Rocket 4.3 06:35:25 10° N 06:41:31 90° WSW 06:46:59 14° S
SL-4 R/B 3.6 06:39:44 10° W 06:41:57 26° WNW 06:41:57 26° WNW
Cosmos 2263 Rocket 4.3 06:39:35 10° W 06:43:49 21° SW 06:47:30 12° S
SMAP 3.8 06:45:25 28° S 06:47:37 52° WSW 06:52:11 10° NW
BREEZE-M R/B 4.2 06:48:12 10° NW 06:52:11 50° NNE 06:52:11 50° NNE
Cosmos 2298 Rocket 4.2 06:48:58 10° NNW 06:53:34 67° NNW 06:53:34 67° NNW
Cosmos 1125 Rocket 4.3 06:59:29 10° NW 07:04:36 48° WSW 07:05:36 42° SSW
Cosmos 1867 4.1 07:01:24 10° NW 07:05:28 53° NW 07:05:28 53° NW
Cosmos 1844 Rocket 3.8 07:04:47 10° WNW 07:10:08 41° SW 07:11:39 35° SSW
Cosmos 1725 Rocket 4.5 07:04:19 10° NNW 07:10:34 59° WSW 07:16:51 10° S
USA 267 3.3 07:16:12 67° N 07:16:46 70° NW 07:23:25 10° WSW
CZ-4C R/B 4.1 07:18:33 10° WSW 07:24:13 24° S 07:24:30 24° S
Timation 2 Rocket 4.3 07:20:34 10° NW 07:26:25 61° WSW 07:26:25 61° WSW
CENTAUR R/B 4.1 07:36:21 10° WSW 07:42:16 26° SSW 07:42:29 26° SSW
